Kecskemet, Hungary

8:51 AM CEST on May 23, 2018 (GMT +0200)
Kecskemet

Weather History for LHKE - November, 2013

Change the Weather History Date:

Thursday, November 21, 2013

  Actual Average (LHBP) Record (LHBP)
Temperature  
Mean Temperature 42 °F -  
Max Temperature 50 °F 43 °F 62 °F (2002)
Min Temperature 35 °F 32 °F 14 °F (1999)
Degree Days  
Heating Degree Days 22    
Moisture  
Dew Point 43 °F    
Average Humidity 93    
Maximum Humidity 100    
Minimum Humidity 87    
Precipitation  
Precipitation 0.00 in - - ()
Sea Level Pressure  
Sea Level Pressure 29.64 in    
Wind  
Wind Speed 6 mph ()    
Max Wind Speed 11 mph    
Max Gust Speed -    
Visibility 1.8 miles    
Events Fog , Rain    
Averages and records for this station are not official NWS values.
T = Trace of Precipitation, MM = Missing Value Source: Averaged Metar Reports

Daily Weather History Graph

Daily Weather History Graph

Search for Another Location

Airport or City:

Astronomy

Nov. 21, 2013 Rise Set
Actual Time 6:52 AM CET 4:00 PM CET
Civil Twilight 6:18 AM CET 4:34 PM CET
Nautical Twilight 5:41 AM CET 5:11 PM CET
Astronomical Twilight 5:05 AM CET 5:47 PM CET
Moon 7:22 PM CET (11/21) 9:46 AM CET (11/21)
Length of Visible Light 10h 15m
Length of Day
9h 08m
Waning Gibbous, 87% of the Moon is Illuminated
Nov 21
Waning Gibbous
Nov 25
Last Quarter
Dec 3
New
Dec 9
First Quarter
Dec 17
Full

Hourly Weather History & Observations

Time (CET) Temp. Windchill Dew Point Humidity Pressure Visibility Wind Dir Wind Speed Gust Speed Precip Events Conditions
12:15 AM 46.4 °F 41.2 °F 42.8 °F 87% 29.68 in 6.2 mi West 11.2 mph - N/A   Mostly Cloudy
12:45 AM 46.4 °F 42.0 °F 42.8 °F 87% 29.68 in 6.2 mi WSW 8.9 mph - N/A   Mostly Cloudy
1:00 AM - - - N/A% - 3.1 mi North - - N/A   Mostly Cloudy
1:15 AM 46.4 °F 42.0 °F 42.8 °F 87% 29.68 in 6.2 mi West 8.9 mph - N/A   Mostly Cloudy
1:45 AM 44.6 °F 40.8 °F 41.0 °F 87% 29.68 in 6.2 mi WSW 6.7 mph - N/A   Mostly Cloudy
2:15 AM 42.8 °F 38.7 °F 41.0 °F 93% 29.68 in 6.2 mi SW 6.7 mph - N/A   Mostly Cloudy
2:45 AM 42.8 °F 40.2 °F 39.2 °F 87% 29.68 in 6.2 mi SW 4.5 mph - N/A   Mostly Cloudy
3:15 AM 42.8 °F 38.7 °F 39.2 °F 87% 29.68 in 6.2 mi WSW 6.7 mph - N/A   Mostly Cloudy
3:45 AM 41.0 °F - 39.2 °F 93% 29.68 in 6.2 mi SW 2.2 mph - N/A   Mostly Cloudy
4:15 AM 39.2 °F - 39.2 °F 100% 29.71 in 3.1 mi SSW 2.2 mph - N/A   Mostly Cloudy
4:45 AM 39.2 °F - 37.4 °F 93% 29.68 in 1.9 mi SSW 2.2 mph - N/A   Scattered Clouds
5:15 AM 37.4 °F 33.9 °F 37.4 °F 100% 29.68 in 0.6 mi SE 4.5 mph - N/A   Scattered Clouds
5:32 AM 37.4 °F 33.9 °F 35.6 °F 93% 29.68 in 0.3 mi SSE 4.5 mph - N/A Fog Fog
5:45 AM - - - N/A% - 0.9 mi South 4.5 mph - N/A   Overcast
6:05 AM 37.4 °F - 35.6 °F 93% 29.68 in 0.2 mi SSE 2.2 mph - N/A Fog Fog
6:15 AM 37.4 °F - 35.6 °F 93% 29.68 in 0.2 mi SSE 2.2 mph - N/A Fog Fog
6:45 AM 37.4 °F - 35.6 °F 93% 29.68 in 0.1 mi South 2.2 mph - N/A Fog Fog
7:08 AM 35.6 °F - 35.6 °F 100% 29.68 in 0.2 mi Calm Calm - N/A Fog Fog
7:15 AM 37.4 °F - 35.6 °F 93% 29.68 in 0.2 mi Calm Calm - N/A Fog Fog
7:42 AM 39.2 °F - 37.4 °F 93% 29.68 in 0.1 mi ESE 2.2 mph - N/A Fog Fog
7:45 AM 39.2 °F - 37.4 °F 93% 29.68 in 0.1 mi SE 2.2 mph - N/A Fog Fog
8:15 AM 41.0 °F 36.5 °F 39.2 °F 93% 29.68 in 0.1 mi ESE 6.7 mph - N/A Fog Fog
8:45 AM - - - N/A% - 0.5 mi Variable 4.5 mph - N/A Fog Fog
9:15 AM 41.0 °F - 41.0 °F 100% 29.68 in 0.1 mi East 2.2 mph - N/A Fog Fog
9:37 AM 42.8 °F 40.2 °F 41.0 °F 93% 29.68 in 0.1 mi East 4.5 mph - N/A Fog Fog
9:45 AM 42.8 °F 40.2 °F 42.8 °F 100% 29.65 in 0.1 mi ENE 4.5 mph - N/A Fog Fog
10:15 AM 44.6 °F 40.8 °F 42.8 °F 93% 29.65 in 0.1 mi ENE 6.7 mph - N/A Fog Fog
10:35 AM 44.6 °F 40.8 °F 42.8 °F 93% 29.65 in 0.2 mi East 6.7 mph - N/A Fog Fog
10:42 AM 44.6 °F 40.8 °F 42.8 °F 93% 29.65 in 0.4 mi East 6.7 mph - N/A Fog Fog
10:45 AM 44.6 °F 40.8 °F 44.6 °F 100% 29.65 in 0.5 mi ENE 6.7 mph - N/A Fog Fog
11:15 AM 46.4 °F 43.0 °F 44.6 °F 93% 29.62 in 0.9 mi ENE 6.7 mph - N/A Fog Fog
11:29 AM 46.4 °F 43.0 °F 44.6 °F 93% 29.62 in 1.9 mi ENE 6.7 mph - N/A   Mostly Cloudy
11:45 AM - - - N/A% - 1.9 mi East 8.9 mph - N/A   Overcast
12:15 PM 46.4 °F 41.2 °F 46.4 °F 100% 29.62 in 2.2 mi ENE 11.2 mph - N/A   Mostly Cloudy
12:45 PM 46.4 °F 42.0 °F 44.6 °F 93% 29.62 in 1.2 mi ENE 8.9 mph - N/A   Overcast
1:05 PM 46.4 °F 41.2 °F 44.6 °F 93% 29.62 in 1.2 mi ENE 11.2 mph - N/A Rain Light Rain
1:15 PM 46.4 °F 41.2 °F 44.6 °F 93% 29.59 in 1.2 mi ENE 11.2 mph - N/A Rain Light Rain
1:45 PM 48.2 °F - 44.6 °F 87% 29.59 in 0.9 mi ENE 11.2 mph - N/A Rain Light Rain Showers
1:56 PM 48.2 °F - 44.6 °F 87% 29.59 in 0.9 mi ENE 11.2 mph - N/A Rain Light Rain
2:15 PM 48.2 °F - 46.4 °F 93% 29.59 in 0.9 mi NE 11.2 mph - N/A Rain Light Rain
2:28 PM 48.2 °F - 46.4 °F 93% 29.59 in 1.9 mi ENE 11.2 mph - N/A Rain Light Rain
2:45 PM - - - N/A% - 3.1 mi ENE 8.9 mph - N/A   Overcast
3:15 PM 48.2 °F - 46.4 °F 93% 29.59 in 1.9 mi ENE 11.2 mph - N/A Rain Light Rain
3:45 PM 50.0 °F - 46.4 °F 87% 29.59 in 2.5 mi ENE 8.9 mph - N/A Rain Light Rain
4:15 PM 50.0 °F - 46.4 °F 87% 29.59 in 2.5 mi ENE 8.9 mph - N/A Rain Light Rain
4:45 PM 50.0 °F - 46.4 °F 87% 29.59 in 2.5 mi ENE 8.9 mph - N/A Rain Light Rain
5:15 PM 48.2 °F - 46.4 °F 93% 29.59 in 2.2 mi East 6.7 mph - N/A   Overcast
5:45 PM - - - N/A% - 2.5 mi East 6.7 mph - N/A Fog Fog
6:15 PM 48.2 °F - 46.4 °F 93% 29.59 in 2.2 mi East 4.5 mph - N/A   Mostly Cloudy
6:45 PM 48.2 °F - 46.4 °F 93% 29.59 in 1.9 mi ESE 4.5 mph - N/A   Mostly Cloudy
7:15 PM 48.2 °F - 46.4 °F 93% 29.59 in 1.6 mi ESE 2.2 mph - N/A   Mostly Cloudy
7:45 PM 48.2 °F - 46.4 °F 93% 29.62 in 1.6 mi South 2.2 mph - N/A   Overcast
8:15 PM 48.2 °F - 46.4 °F 93% 29.62 in 1.6 mi South 2.2 mph - N/A   Overcast
8:45 PM - - - N/A% - 1.2 mi Variable 4.5 mph - N/A Fog Fog
8:56 PM 48.2 °F - 46.4 °F 93% 29.62 in 0.5 mi Calm Calm - N/A Fog Fog
9:15 PM 46.4 °F - 44.6 °F 93% 29.62 in 0.3 mi Calm Calm - N/A Fog Fog
9:45 PM 46.4 °F - 44.6 °F 93% 29.62 in 0.5 mi WSW 2.2 mph - N/A Fog Fog
9:58 PM 48.2 °F - 46.4 °F 93% 29.62 in 1.2 mi WSW 4.5 mph - N/A   Overcast
10:15 PM 48.2 °F - 46.4 °F 93% 29.62 in 1.2 mi West 6.7 mph - N/A   Overcast
10:45 PM 46.4 °F 43.0 °F 44.6 °F 93% 29.62 in 1.2 mi West 6.7 mph - N/A   Overcast
11:15 PM 46.4 °F - 44.6 °F 93% 29.62 in 0.9 mi WNW 2.2 mph - N/A   Overcast
11:34 PM 46.4 °F - 44.6 °F 93% 29.62 in 0.5 mi NW 2.2 mph - N/A Fog Fog
11:45 PM - - - N/A% - 0.5 mi North - - N/A Fog Fog